Regional Weather Roundup
Issued by NWS

Home | Current Version | Previous Version | Text Only | Print | Product List | Glossary Off
Versions: 1 2 3 4 5 6 7 8 9 10 11 12 13 14 15 16 17 18 19 20 21 22 23 24 25 26 27 28 29 30 31 32 33 34 35 36 37 38 39 40 41 42 43 44 45 46 47 48 49 50

979
ASUS45 KBOU 270007
RWRCO

WEATHER ROUNDUP FOR COLORADO
NATIONAL WEATHER SERVICE DENVER/BOULDER CO
600 PM MDT FRI MAY 26 2017

NOTE: "FAIR" INDICATES FEW OR NO CLOUDS BELOW 12000 FEET WITH NO
SIGNIFICANT WEATHER AND/OR OBSTRUCTIONS TO VISIBILITY.

COZ001>005-013-030-031-270100-
...NORTHWEST COLORADO...

CITY           SKY/WX    TMP DP  RH WIND       PRES   REMARKS
CRAIG          CLOUDY    56  39  53 N30G47    29.87R
HAYDEN         PTSUNNY   57  36  44 NW30G37   29.87R
MEEKER         FAIR      69  21  16 N9        29.83R
RABBIT EARS PA NOT AVBL
STEAMBOAT SPGS NOT AVBL
WALDEN         NOT AVBL
$$

COZ006>008-011-270100-
...WEST CENTRAL VALLEYS...

CITY           SKY/WX    TMP DP  RH WIND       PRES   REMARKS
GRAND JUNCTION FAIR      83   7   5 W24G32    29.72F
MONTROSE       FAIR      76  11   8 SW16G30   29.85S
EAGLE          SUNNY     73  10   9 SW23G36   29.86S
RIFLE          FAIR      78   8   7 SW15G23   29.78R
DELTA          FAIR      83   9   6 SW29G37   29.80F
NUCLA          FAIR      77   9   7 SW24G32   29.90S
$$

COZ017>023-064>068-270100-
...SOUTHWEST COLORADO...

CITY           SKY/WX    TMP DP  RH WIND       PRES   REMARKS
DURANGO        FAIR      73   8   8 W24G32    29.96F
CORTEZ         FAIR      77   8   7 SW21G31   29.90F
PAGOSA SPRINGS FAIR      69   4   7 SW10G30   30.04S
TELLURIDE      FAIR      61   8  12 S6        30.09S
WOLF CREEK PAS NOT AVBL
$$

COZ009-010-012-014-032>034-037-058>063-270100-
...CENTRAL COLORADO...

CITY           SKY/WX    TMP DP  RH WIND       PRES   REMARKS
ASPEN          FAIR      66  15  14 SW7G25    29.94R
BUENA VISTA    FAIR      65  18  16 NW14G22   29.96R
COPPER MTN     NOT AVBL
BERTHOUD PASS  NOT AVBL
COTTONWOOD PAS NOT AVBL
GUNNISON       FAIR      68  17  14 W15G23    29.95F
KREMMLING      NOT AVBL
LEADVILLE      PTSUNNY   54  17  23 S21G28    30.05S
SALIDA         FAIR      72  12  10 W12G31    30.00R
SUNLIGHT       NOT AVBL
WILKERSON PASS NOT AVBL
$$

COZ069>075-270100-
...SAN LUIS VALLEY/SANGRE DE CRISTO MOUNTAINS...

CITY           SKY/WX    TMP DP  RH WIND       PRES   REMARKS
ALAMOSA        FAIR      70  12  10 SW24G31   29.98S
DEL NORTE      NOT AVBL
LA VETA PASS   NOT AVBL
SAGUACHE       NOT AVBL
$$

COZ035-036-038>040-270100-
...NORTHERN COLORADO FRONT RANGE...

CITY           SKY/WX    TMP DP  RH WIND       PRES   REMARKS
DENVER INTL AP FAIR      72  50  45 W13G20    29.80S
DMNS CITY PARK   N/A     71  49  45 N14       29.79F
AURORA         MOSUNNY   71  42  34 S17       29.80F
FRONT RANGE AP PTSUNNY   73  41  31 S25G36    29.82S
ERIE MUNI ARPT NOT AVBL
BOULDER MUN AP NOT AVBL
CENTENNIAL     FAIR      69  45  41 S18G29    29.81F
BROOMFIELD     PTSUNNY   66  54  63 NW7       29.82F
FORT COLLINS   FAIR      67  50  54 NW10      29.81F
LONGMONT       NOT AVBL
$$

COZ041-046-047-076>085-087-088-270100-
...PIKES PEAK/PALMER DIVIDE AND SOUTHERN FOOTHILLS...

CITY           SKY/WX    TMP DP  RH WIND       PRES   REMARKS
COLO. SPRINGS  PTSUNNY   70  44  39 S12G21    29.84F
A. F. ACADEMY  FAIR      66  44  43 SW5       29.87F
SCHRIEVER AFB  PTSUNNY   68  42  37 S24G37    29.83F
CHEYENNE MTN   PTSUNNY   66  41  40 S14G20    29.83F
ELLICOTT       FAIR     N/A N/A N/A SE33G44   29.79F THUNDER
FALCON         PTSUNNY   66  41  39 S12G28    29.90F
FORT CARSON    FAIR      73  43  33 SE16G30   29.79F
LIMON          FAIR      68  46  45 SE18G30   29.84F
MONUMENT HILL  NOT AVBL
CANON CITY     NOT AVBL
WALSENBURG     FAIR      77  21  12 SW22G32   29.85F
TRINIDAD       FAIR      76  22  13 S21G28    29.84F
$$

COZ042>045-048>051-090-091-270100-
...NORTHEAST COLORADO...

CITY           SKY/WX    TMP DP  RH WIND       PRES   REMARKS
GREELEY ARPT   FAIR      69  49  48 SE14      29.79F
AKRON          FAIR      56  46  69 E18G26    29.81F
BURLINGTON     FAIR      71  51  49 SE18G29   29.82F
WRAY           CLOUDY    64  50  59 NE8       29.89S
YUMA           NOT AVBL
STERLING       NOT AVBL
HOLYOKE        NOT AVBL
FORT MORGAN    FAIR      67  45  45 SE20G26   29.81S
$$

COZ086-089-092>099-270100-
...SOUTHEAST COLORADO...

CITY           SKY/WX    TMP DP  RH WIND       PRES   REMARKS
PUEBLO         FAIR      84  21  10 SW18G28   29.71F
LA JUNTA       FAIR      78  43  28 SE20      29.76F
LAMAR          FAIR      78  46  32 S20G25    29.77F
SPRINGFIELD      N/A     77  45  32 S23       29.84F
$$




USA.gov is the U.S. government's official web portal to all federal, state and local government web resources and services.